| time (UTC) | temp C | wind direction | speed KPH | gust KPH | rain 1hr cm | rain 24hr cm | rain mn cm | humidity % | barometer mb |
| 20260503190106 | 10 | 297 | 24.1 | 0.0 | 0.00 | 0.00 | 0.00 | 52 | 1008.6 |
| 20260503185553 | 10 | 272 | 25.7 | 0.0 | 0.00 | 0.00 | 0.00 | 55 | 1008.6 |
| 20260503185053 | 10 | 292 | 30.6 | 0.0 | 0.00 | 0.00 | 0.00 | 50 | 1008.6 |
| 20260503184552 | 10 | 284 | 30.6 | 0.0 | 0.00 | 0.00 | 0.00 | 55 | 1008.7 |
| 20260503184050 | 10 | 290 | 29.0 | 0.0 | 0.00 | 0.00 | 0.00 | 55 | 1008.7 |
| 20260503183548 | 10 | 271 | 25.7 | 0.0 | 0.00 | 0.00 | 0.00 | 58 | 1008.7 |
| 20260503183047 | 9 | 281 | 24.1 | 0.0 | 0.00 | 0.00 | 0.00 | 53 | 1008.7 |
| 20260503182548 | 8 | 272 | 27.4 | 0.0 | 0.00 | 0.00 | 0.00 | 52 | 1008.8 |
| 20260503182047 | 9 | 301 | 30.6 | 0.0 | 0.00 | 0.00 | 0.00 | 53 | 1008.8 |
| 20260503181554 | 8 | 302 | 29.0 | 0.0 | 0.00 | 0.00 | 0.00 | 55 | 1009.0 |
| 20260503181045 | 8 | 300 | 25.7 | 0.0 | 0.00 | 0.00 | 0.00 | 57 | 1008.9 |
| 20260503180544 | 8 | 288 | 25.7 | 0.0 | 0.00 | 0.00 | 0.00 | 51 | 1008.9 |
| 20260503180051 | 8 | 288 | 25.7 | 0.0 | 0.00 | 0.00 | 0.00 | 59 | 1009.0 |
| 20260503175544 | 8 | 325 | 25.7 | 0.0 | 0.00 | 0.00 | 0.00 | 59 | 1009.0 |
| 20260503175043 | 8 | 290 | 20.9 | 0.0 | 0.00 | 0.00 | 0.00 | 56 | 1009.0 |
| 20260503174542 | 8 | 298 | 22.5 | 0.0 | 0.00 | 0.00 | 0.00 | 51 | 1009.0 |
| 20260503174042 | 8 | 293 | 29.0 | 0.0 | 0.00 | 0.00 | 0.00 | 51 | 1009.1 |
| 20260503173541 | 8 | 283 | 25.7 | 0.0 | 0.00 | 0.00 | 0.00 | 56 | 1009.1 |
| 20260503173040 | 8 | 294 | 16.1 | 0.0 | 0.00 | 0.00 | 0.00 | 58 | 1009.0 |
| 20260503172539 | 8 | 300 | 14.5 | 0.0 | 0.00 | 0.00 | 0.00 | 52 | 1009.1 |
| 20260503172039 | 8 | 317 | 16.1 | 0.0 | 0.00 | 0.00 | 0.00 | 55 | 1009.2 |
| 20260503171538 | 8 | 309 | 20.9 | 0.0 | 0.00 | 0.00 | 0.00 | 51 | 1009.3 |
| 20260503171038 | 8 | 288 | 25.7 | 0.0 | 0.00 | 0.00 | 0.00 | 51 | 1009.3 |
| 20260503170538 | 8 | 315 | 25.7 | 0.0 | 0.00 | 0.00 | 0.00 | 61 | 1009.3 |
| 20260503150529 | 7 | 355 | 20.9 | 0.0 | 0.00 | 0.00 | 0.00 | 57 | 1010.0 |
| 20260503131021 | 6 | 344 | 20.9 | 0.0 | 0.00 | 0.00 | 0.00 | 64 | 1010.3 |
| 20260503130520 | 6 | 302 | 20.9 | 0.0 | 0.00 | 0.00 | 0.00 | 67 | 1010.2 |
| 20260503110509 | 4 | 14 | 9.7 | 0.0 | 0.00 | 0.00 | 0.00 | 73 | 1010.0 |
| 20260503090501 | 3 | 95 | 3.2 | 0.0 | 0.00 | 0.00 | 0.00 | 78 | 1009.7 |
| 20260503081600 | 3 | 119 | 3.2 | 0.0 | 0.00 | 0.00 | 0.00 | 77 | 1009.9 |
| 20260503081055 | 3 | 119 | 4.8 | 0.0 | 0.00 | 0.00 | 0.00 | 77 | 1009.9 |
| 20260503080554 | 3 | 123 | 4.8 | 0.0 | 0.00 | 0.00 | 0.00 | 78 | 1010.0 |
| 20260503072552 | 3 | 326 | 1.6 | 0.0 | 0.00 | 0.00 | 0.00 | 75 | 1010.1 |
| 20260503072052 | 3 | 93 | 3.2 | 0.0 | 0.00 | 0.00 | 0.00 | 75 | 1010.1 |
| 20260503071551 | 3 | 68 | 4.8 | 0.0 | 0.00 | 0.00 | 0.00 | 75 | 1010.2 |
| 20260503071051 | 3 | 99 | 4.8 | 0.0 | 0.00 | 0.00 | 0.00 | 75 | 1010.2 |
| 20260503070553 | 3 | 44 | 4.8 | 0.0 | 0.00 | 0.00 | 0.00 | 76 | 1010.2 |
| 20260503060109 | 3 | 319 | 9.7 | 0.0 | 0.00 | 0.00 | 0.00 | 73 | 1010.6 |
| 20260503055044 | 3 | 336 | 11.3 | 0.0 | 0.00 | 0.00 | 0.00 | 73 | 1010.6 |
| 20260503054559 | 3 | 322 | 11.3 | 0.0 | 0.00 | 0.00 | 0.00 | 73 | 1010.6 |
| 20260503054043 | 4 | 333 | 11.3 | 0.0 | 0.00 | 0.00 | 0.00 | 75 | 1010.7 |
| 20260503053541 | 4 | 355 | 11.3 | 0.0 | 0.00 | 0.00 | 0.00 | 72 | 1010.7 |
| 20260503053043 | 4 | 335 | 12.9 | 0.0 | 0.00 | 0.00 | 0.00 | 71 | 1010.8 |
| 20260503052544 | 4 | 313 | 14.5 | 0.0 | 0.00 | 0.00 | 0.00 | 72 | 1010.8 |
| 20260503052042 | 4 | 292 | 14.5 | 0.0 | 0.00 | 0.00 | 0.00 | 71 | 1010.7 |
| 20260503051538 | 4 | 296 | 16.1 | 0.0 | 0.00 | 0.00 | 0.00 | 71 | 1010.8 |
| 20260503051037 | 4 | 321 | 16.1 | 0.0 | 0.00 | 0.00 | 0.00 | 71 | 1010.9 |
| 20260503050536 | 4 | 304 | 17.7 | 0.0 | 0.00 | 0.00 | 0.00 | 72 | 1010.9 |
| 20260503050038 | 5 | 316 | 17.7 | 0.0 | 0.00 | 0.00 | 0.00 | 71 | 1010.9 |
| 20260503045535 | 5 | 315 | 17.7 | 0.0 | 0.00 | 0.00 | 0.00 | 70 | 1010.9 |
| 20260503045032 | 5 | 299 | 17.7 | 0.0 | 0.00 | 0.00 | 0.00 | 68 | 1011.0 |
| 20260503044532 | 5 | 299 | 16.1 | 0.0 | 0.00 | 0.00 | 0.00 | 70 | 1010.9 |
| 20260503044031 | 5 | 309 | 16.1 | 0.0 | 0.00 | 0.00 | 0.00 | 69 | 1011.0 |
| 20260503043531 | 5 | 331 | 16.1 | 0.0 | 0.00 | 0.00 | 0.00 | 69 | 1011.0 |
| 20260503043030 | 5 | 315 | 16.1 | 0.0 | 0.00 | 0.00 | 0.00 | 69 | 1011.1 |
| 20260503042529 | 5 | 314 | 14.5 | 0.0 | 0.00 | 0.00 | 0.00 | 69 | 1011.2 |
| 20260503042029 | 5 | 328 | 16.1 | 0.0 | 0.00 | 0.00 | 0.00 | 67 | 1011.1 |
| 20260503041528 | 5 | 340 | 16.1 | 0.0 | 0.00 | 0.00 | 0.00 | 68 | 1011.2 |
| 20260503041031 | 5 | 334 | 16.1 | 0.0 | 0.00 | 0.00 | 0.00 | 67 | 1011.3 |
| 20260503040526 | 5 | 317 | 17.7 | 0.0 | 0.00 | 0.00 | 0.00 | 69 | 1011.3 |
| 20260503040034 | 5 | 325 | 17.7 | 0.0 | 0.00 | 0.00 | 0.00 | 68 | 1011.3 |
| 20260503035526 | 5 | 323 | 17.7 | 0.0 | 0.00 | 0.00 | 0.00 | 65 | 1011.3 |
| 20260503035025 | 5 | 329 | 19.3 | 0.0 | 0.00 | 0.00 | 0.00 | 66 | 1011.3 |
| 20260503034526 | 5 | 343 | 20.9 | 0.0 | 0.00 | 0.00 | 0.00 | 67 | 1011.3 |
| 20260503034025 | 6 | 313 | 22.5 | 0.0 | 0.00 | 0.00 | 0.00 | 66 | 1011.3 |
| 20260503033525 | 6 | 324 | 24.1 | 0.0 | 0.00 | 0.00 | 0.00 | 69 | 1011.3 |
| 20260503033029 | 6 | 313 | 24.1 | 0.0 | 0.00 | 0.00 | 0.00 | 68 | 1011.3 |
| 20260503032524 | 5 | 296 | 22.5 | 0.0 | 0.00 | 0.00 | 0.00 | 67 | 1011.3 |
| 20260503032024 | 6 | 298 | 22.5 | 0.0 | 0.00 | 0.00 | 0.00 | 67 | 1011.3 |
| 20260503031524 | 6 | 279 | 22.5 | 0.0 | 0.00 | 0.00 | 0.00 | 69 | 1011.3 |
| 20260503031024 | 6 | 278 | 22.5 | 0.0 | 0.00 | 0.00 | 0.00 | 68 | 1011.2 |
| 20260503030524 | 6 | 287 | 22.5 | 0.0 | 0.00 | 0.00 | 0.00 | 67 | 1011.2 |
| 20260503030026 | 6 | 277 | 22.5 | 0.0 | 0.00 | 0.00 | 0.00 | 67 | 1011.3 |
| 20260503025523 | 6 | 273 | 22.5 | 0.0 | 0.00 | 0.00 | 0.00 | 69 | 1011.2 |
| 20260503025023 | 6 | 265 | 20.9 | 0.0 | 0.00 | 0.00 | 0.00 | 67 | 1011.2 |
| 20260503024523 | 6 | 262 | 20.9 | 0.0 | 0.00 | 0.00 | 0.00 | 67 | 1011.2 |
| 20260503024023 | 6 | 253 | 20.9 | 0.0 | 0.00 | 0.00 | 0.00 | 67 | 1011.2 |
| 20260503023522 | 6 | 257 | 20.9 | 0.0 | 0.00 | 0.00 | 0.00 | 67 | 1011.2 |
| 20260503023023 | 6 | 253 | 20.9 | 0.0 | 0.00 | 0.00 | 0.00 | 67 | 1011.2 |
| 20260503022522 | 6 | 264 | 20.9 | 0.0 | 0.00 | 0.00 | 0.00 | 68 | 1011.2 |
| 20260503022022 | 6 | 261 | 20.9 | 0.0 | 0.00 | 0.00 | 0.00 | 67 | 1011.2 |
| 20260503021522 | 6 | 251 | 19.3 | 0.0 | 0.00 | 0.00 | 0.00 | 67 | 1011.2 |
| 20260503021022 | 6 | 257 | 19.3 | 0.0 | 0.00 | 0.00 | 0.00 | 66 | 1011.3 |
| 20260503020522 | 6 | 255 | 17.7 | 0.0 | 0.00 | 0.00 | 0.00 | 66 | 1011.5 |
| 20260503020022 | 6 | 257 | 17.7 | 0.0 | 0.00 | 0.00 | 0.00 | 68 | 1011.5 |
| 20260503015521 | 6 | 267 | 19.3 | 0.0 | 0.00 | 0.00 | 0.00 | 66 | 1011.5 |
| 20260503015025 | 6 | 262 | 19.3 | 0.0 | 0.00 | 0.00 | 0.00 | 66 | 1011.5 |
| 20260503014524 | 6 | 258 | 19.3 | 0.0 | 0.00 | 0.00 | 0.00 | 65 | 1011.5 |
| 20260503014021 | 6 | 254 | 17.7 | 0.0 | 0.00 | 0.00 | 0.00 | 64 | 1011.5 |
| 20260503013521 | 6 | 259 | 19.3 | 0.0 | 0.00 | 0.00 | 0.00 | 65 | 1011.5 |
| 20260503013022 | 6 | 274 | 20.9 | 0.0 | 0.00 | 0.00 | 0.00 | 65 | 1011.5 |
| 20260503012522 | 6 | 279 | 20.9 | 0.0 | 0.00 | 0.00 | 0.00 | 67 | 1011.5 |
| 20260503012021 | 6 | 265 | 20.9 | 0.0 | 0.00 | 0.00 | 0.00 | 66 | 1011.5 |
| 20260503011523 | 6 | 272 | 19.3 | 0.0 | 0.00 | 0.00 | 0.00 | 66 | 1011.5 |
| 20260503011021 | 6 | 260 | 17.7 | 0.0 | 0.00 | 0.00 | 0.00 | 66 | 1011.6 |
| 20260503010522 | 6 | 286 | 19.3 | 0.0 | 0.00 | 0.00 | 0.00 | 64 | 1011.6 |
| 20260503010027 | 6 | 305 | 19.3 | 0.0 | 0.00 | 0.00 | 0.00 | 61 | 1011.5 |
| 20260503005520 | 6 | 277 | 20.9 | 0.0 | 0.00 | 0.00 | 0.00 | 66 | 1011.3 |
| 20260503005018 | 6 | 287 | 20.9 | 0.0 | 0.00 | 0.00 | 0.00 | 63 | 1011.4 |
| 20260503004519 | 6 | 306 | 20.9 | 0.0 | 0.00 | 0.00 | 0.00 | 65 | 1011.4 |
| 20260503004019 | 6 | 302 | 22.5 | 0.0 | 0.00 | 0.00 | 0.00 | 63 | 1011.3 |
| 20260503003516 | 6 | 284 | 22.5 | 0.0 | 0.00 | 0.00 | 0.00 | 67 | 1011.2 |
| 20260503003016 | 6 | 277 | 22.5 | 0.0 | 0.00 | 0.00 | 0.00 | 67 | 1011.1 |
| 20260503002519 | 6 | 263 | 22.5 | 0.0 | 0.00 | 0.00 | 0.00 | 68 | 1011.1 |
| 20260503002019 | 6 | 271 | 24.1 | 0.0 | 0.00 | 0.00 | 0.00 | 67 | 1011.1 |
| 20260503001516 | 6 | 266 | 22.5 | 0.0 | 0.00 | 0.00 | 0.00 | 67 | 1011.1 |
| 20260503001016 | 6 | 274 | 22.5 | 0.0 | 0.00 | 0.00 | 0.00 | 65 | 1011.0 |
| 20260503000515 | 6 | 271 | 22.5 | 0.0 | 0.00 | 0.00 | 0.00 | 65 | 1011.0 |
| 20260503000016 | 6 | 273 | 24.1 | 0.0 | 0.00 | 0.00 | 0.00 | 64 | 1011.0 |
| 20260502235515 | 7 | 260 | 25.7 | 0.0 | 0.00 | 0.00 | 0.00 | 67 | 1011.0 |
| 20260502235015 | 7 | 255 | 30.6 | 0.0 | 0.00 | 0.00 | 0.00 | 64 | 1011.0 |
| 20260502234523 | 7 | 253 | 32.2 | 0.0 | 0.00 | 0.00 | 0.00 | 66 | 1011.0 |
| 20260502234017 | 7 | 272 | 30.6 | 0.0 | 0.00 | 0.00 | 0.00 | 66 | 1010.9 |
| 20260502233515 | 7 | 274 | 27.4 | 0.0 | 0.00 | 0.00 | 0.00 | 68 | 1010.9 |
| 20260502233015 | 7 | 306 | 27.4 | 0.0 | 0.00 | 0.00 | 0.00 | 62 | 1010.9 |
| 20260502232514 | 7 | 288 | 27.4 | 0.0 | 0.00 | 0.00 | 0.00 | 63 | 1010.9 |
| 20260502232014 | 7 | 297 | 25.7 | 0.0 | 0.00 | 0.00 | 0.00 | 64 | 1010.8 |
| 20260502231514 | 7 | 284 | 24.1 | 0.0 | 0.00 | 0.00 | 0.00 | 65 | 1010.8 |
| 20260502231014 | 7 | 284 | 25.7 | 0.0 | 0.00 | 0.00 | 0.00 | 62 | 1010.8 |
| 20260502230514 | 7 | 291 | 27.4 | 0.0 | 0.00 | 0.00 | 0.00 | 62 | 1010.9 |
| 20260502230014 | 7 | 276 | 29.0 | 0.0 | 0.00 | 0.00 | 0.00 | 63 | 1010.8 |
| 20260502225517 | 7 | 287 | 32.2 | 0.0 | 0.00 | 0.00 | 0.00 | 62 | 1010.8 |
| 20260502225013 | 7 | 274 | 30.6 | 0.0 | 0.00 | 0.00 | 0.00 | 62 | 1010.8 |
| 20260502224513 | 8 | 291 | 29.0 | 0.0 | 0.00 | 0.00 | 0.00 | 59 | 1010.8 |
| 20260502224013 | 8 | 276 | 29.0 | 0.0 | 0.00 | 0.00 | 0.00 | 60 | 1010.7 |
| 20260502223515 | 8 | 266 | 29.0 | 0.0 | 0.00 | 0.00 | 0.00 | 62 | 1010.7 |
| 20260502223013 | 8 | 292 | 30.6 | 0.0 | 0.00 | 0.00 | 0.00 | 61 | 1010.7 |
| 20260502222513 | 8 | 279 | 30.6 | 0.0 | 0.00 | 0.00 | 0.00 | 61 | 1010.7 |
| 20260502222012 | 8 | 274 | 30.6 | 0.0 | 0.00 | 0.00 | 0.00 | 59 | 1010.6 |
| 20260502221512 | 8 | 282 | 30.6 | 0.0 | 0.00 | 0.00 | 0.00 | 62 | 1010.6 |
| 20260502221012 | 8 | 284 | 29.0 | 0.0 | 0.00 | 0.00 | 0.00 | 62 | 1010.5 |
| 20260502220512 | 8 | 285 | 29.0 | 0.0 | 0.00 | 0.00 | 0.00 | 61 | 1010.5 |
| 20260502220014 | 8 | 280 | 32.2 | 0.0 | 0.00 | 0.00 | 0.00 | 61 | 1010.5 |
| 20260502215511 | 8 | 280 | 30.6 | 0.0 | 0.00 | 0.00 | 0.00 | 60 | 1010.5 |
| 20260502215011 | 8 | 288 | 29.0 | 0.0 | 0.00 | 0.00 | 0.00 | 60 | 1010.5 |
| 20260502214530 | 8 | 284 | 30.6 | 0.0 | 0.00 | 0.00 | 0.00 | 59 | 1010.5 |
| 20260502214014 | 8 | 275 | 32.2 | 0.0 | 0.00 | 0.00 | 0.00 | 61 | 1010.4 |
| 20260502213511 | 8 | 288 | 32.2 | 0.0 | 0.00 | 0.00 | 0.00 | 63 | 1010.4 |
| 20260502213012 | 9 | 277 | 35.4 | 0.0 | 0.00 | 0.00 | 0.00 | 60 | 1010.4 |
| 20260502212511 | 9 | 275 | 33.8 | 0.0 | 0.00 | 0.00 | 0.00 | 60 | 1010.4 |
| 20260502212011 | 9 | 273 | 33.8 | 0.0 | 0.00 | 0.00 | 0.00 | 59 | 1010.3 |
| 20260502211517 | 9 | 284 | 33.8 | 0.0 | 0.00 | 0.00 | 0.00 | 61 | 1010.4 |
| 20260502211010 | 9 | 279 | 30.6 | 0.0 | 0.00 | 0.00 | 0.00 | 60 | 1010.3 |
| 20260502210510 | 9 | 278 | 25.7 | 0.0 | 0.00 | 0.00 | 0.00 | 56 | 1010.3 |
| 20260502210022 | 9 | 304 | 25.7 | 0.0 | 0.00 | 0.00 | 0.00 | 55 | 1010.3 |
| 20260502205514 | 9 | 286 | 27.4 | 0.0 | 0.00 | 0.00 | 0.00 | 57 | 1010.3 |
| 20260502205009 | 10 | 287 | 30.6 | 0.0 | 0.00 | 0.00 | 0.00 | 53 | 1010.3 |
| 20260502204516 | 10 | 281 | 33.8 | 0.0 | 0.00 | 0.00 | 0.00 | 60 | 1010.4 |
| 20260502204009 | 9 | 271 | 30.6 | 0.0 | 0.00 | 0.00 | 0.00 | 64 | 1010.4 |
| 20260502203508 | 9 | 273 | 30.6 | 0.0 | 0.00 | 0.00 | 0.00 | 61 | 1010.3 |
| 20260502203013 | 9 | 276 | 32.2 | 0.0 | 0.00 | 0.00 | 0.00 | 57 | 1010.3 |
| 20260502202510 | 10 | 273 | 33.8 | 0.0 | 0.00 | 0.00 | 0.00 | 58 | 1010.2 |
| 20260502202008 | 10 | 262 | 33.8 | 0.0 | 0.00 | 0.00 | 0.00 | 58 | 1010.3 |
| 20260502201509 | 10 | 277 | 32.2 | 0.0 | 0.00 | 0.00 | 0.00 | 59 | 1010.4 |
| 20260502201007 | 10 | 276 | 33.8 | 0.0 | 0.00 | 0.00 | 0.00 | 61 | 1010.6 |
| 20260502200609 | 10 | 271 | 35.4 | 0.0 | 0.00 | 0.00 | 0.00 | 60 | 1010.5 |
| 20260502200007 | 10 | 257 | 38.6 | 0.0 | 0.00 | 0.00 | 0.00 | 61 | 1010.4 |
| 20260502195506 | 10 | 279 | 38.6 | 0.0 | 0.00 | 0.00 | 0.00 | 61 | 1010.5 |
| 20260502195007 | 10 | 266 | 37.0 | 0.0 | 0.00 | 0.00 | 0.00 | 58 | 1010.5 |
| 20260502194506 | 10 | 261 | 33.8 | 0.0 | 0.00 | 0.00 | 0.00 | 57 | 1010.5 |
| 20260502194005 | 10 | 260 | 32.2 | 0.0 | 0.00 | 0.00 | 0.00 | 59 | 1010.5 |
| 20260502193505 | 10 | 265 | 32.2 | 0.0 | 0.00 | 0.00 | 0.00 | 63 | 1010.5 |
| 20260502193005 | 10 | 265 | 32.2 | 0.0 | 0.00 | 0.00 | 0.00 | 62 | 1010.5 |
| 20260502192505 | 10 | 277 | 33.8 | 0.0 | 0.00 | 0.00 | 0.00 | 60 | 1010.6 |
| 20260502192005 | 10 | 269 | 33.8 | 0.0 | 0.00 | 0.00 | 0.00 | 62 | 1010.6 |
| 20260502191514 | 10 | 257 | 32.2 | 0.0 | 0.00 | 0.00 | 0.00 | 65 | 1010.5 |
| 20260502191004 | 10 | 275 | 33.8 | 0.0 | 0.00 | 0.00 | 0.00 | 62 | 1010.5 |
| 20260502190504 | 10 | 254 | 33.8 | 0.0 | 0.00 | 0.00 | 0.00 | 61 | 1010.6 |